TimeNST,TemperatureF,Dew PointF,Humidity,Sea Level PressureIn,VisibilityMPH,Wind Direction,Wind SpeedMPH,Gust SpeedMPH,PrecipitationIn,Events,Conditions,WindDirDegrees,DateUTC
12:30 AM,42.1,40.6,95,30.00,-9999.0,North,10.4,-,N/A,,Unknown,350,2012-11-17 04:00:00
1:30 AM,42.3,40.5,93,30.01,-9999.0,North,10.4,-,N/A,,Unknown,360,2012-11-17 05:00:00
2:30 AM,42,40,92,30.03,,North,5.8,,,,,10,2012-11-17 06:00:00
2:30 AM,41.9,40.5,95,30.03,-9999.0,North,5.8,-,N/A,,Unknown,10,2012-11-17 06:00:00
3:30 AM,41.9,40.3,94,30.04,-9999.0,NNE,6.9,-,N/A,,Unknown,30,2012-11-17 07:00:00
4:30 AM,41.4,39.9,95,30.05,-9999.0,North,2.3,-,N/A,,Unknown,350,2012-11-17 08:00:00
5:30 AM,43,41,88,30.06,,NNE,6.9,,,,,20,2012-11-17 09:00:00
5:30 AM,42.8,40.6,92,30.06,-9999.0,NNE,6.9,-,N/A,,Unknown,20,2012-11-17 09:00:00
6:30 AM,41.4,39.7,94,30.09,-9999.0,NNW,4.6,-,N/A,,Unknown,340,2012-11-17 10:00:00
7:30 AM,41.7,40.3,95,30.09,-9999.0,NW,3.5,-,N/A,,Unknown,320,2012-11-17 11:00:00
8:30 AM,43,41,92,30.12,,West,3.5,,,,,280,2012-11-17 12:00:00
8:30 AM,42.6,41.4,95,30.12,-9999.0,West,3.5,-,N/A,,Unknown,280,2012-11-17 12:00:00
9:30 AM,43.7,41.4,91,30.13,-9999.0,WNW,2.3,-,N/A,,Unknown,290,2012-11-17 13:00:00
10:30 AM,43.5,40.3,88,30.13,-9999.0,South,3.5,-,N/A,,Unknown,190,2012-11-17 14:00:00
11:30 AM,43,41,91,30.12,,SSW,4.6,,,,,200,2012-11-17 15:00:00
11:30 AM,43.3,41.2,92,30.12,-9999.0,SSW,4.6,-,N/A,,Unknown,200,2012-11-17 15:00:00
12:30 PM,44.4,43.2,95,30.12,-9999.0,West,8.1,-,N/A,,Unknown,270,2012-11-17 16:00:00
1:30 PM,45.3,43.5,93,30.12,-9999.0,NNW,8.1,-,N/A,,Unknown,340,2012-11-17 17:00:00
2:30 PM,42,41,97,30.14,,ENE,5.8,,,,,60,2012-11-17 18:00:00
2:30 PM,42.4,41.4,96,30.14,-9999.0,ENE,5.8,-,N/A,,Unknown,60,2012-11-17 18:00:00
3:30 PM,42.8,41.7,96,30.17,-9999.0,North,9.2,-,N/A,,Unknown,350,2012-11-17 19:00:00
4:30 PM,41.2,39.2,93,30.19,-9999.0,NNW,12.7,-,N/A,,Unknown,340,2012-11-17 20:00:00
5:30 PM,38,36,89,30.22,,North,15.0,,,,,10,2012-11-17 21:00:00
5:30 PM,38.1,36.0,92,30.22,-9999.0,North,15.0,23.0,N/A,,Unknown,10,2012-11-17 21:00:00
6:30 PM,37.2,34.7,91,30.25,-9999.0,North,9.2,-,N/A,,Unknown,10,2012-11-17 22:00:00
7:30 PM,36.3,33.1,88,30.27,-9999.0,North,11.5,-,N/A,,Unknown,360,2012-11-17 23:00:00
8:30 PM,33,31,87,30.29,,North,10.4,,,,,350,2012-11-18 00:00:00
8:30 PM,32.9,30.6,91,30.29,-9999.0,North,10.4,-,N/A,,Unknown,350,2012-11-18 00:00:00
9:30 PM,31.5,30.4,96,30.30,-9999.0,North,8.1,-,N/A,,Unknown,350,2012-11-18 01:00:00
10:30 PM,29.3,27.5,93,30.31,-9999.0,North,8.1,-,N/A,,Unknown,350,2012-11-18 02:00:00
11:30 PM,30,28,90,30.33,,NW,6.9,,,,,310,2012-11-18 03:00:00
11:30 PM,29.8,28.2,94,30.33,-9999.0,NW,6.9,-,N/A,,Unknown,310,2012-11-18 03:00:00